Temp
-4 -4 -4 -4 -4 -6 -7 -5 -7 -7 -6 -7 -7 -6 -6 -6 -5 -6 -6 -6 -7 -7 -6 -6 -6 -6 -5 -5 -5 -5 -5 -5 -5 -6 -6 -6 -7 -7 -7 -7 -8 -7 -7 -7
-4 -4 -4 -5 -4 -6 -8 -8 -6 -7 -7 -7 -7 -6 -6 -6 -5 -6 -5 -6 -7 -7 -7 -6 -6 -6 -6 -5 -5 -5 -5 -5 -6 -6 -6 -6 -6 -7 -7 -7 -7 -7 -7 -7
-4 -5 -5 -5 -5 -5 -7 -7 -7 -7 -7 -7 -6 -6 -7 -6 -7 -6 -7 -7 -7 -7 -6 -6 -6 -6 -6 -5 -5 -5 -5 -5 -5 -6 -6 -6 -6 -7 -7 -7 -7 -7 -7 -6
-5 -5 -5 -6 -7 -7 -6 -7 -7 -7 -7 -6 -7 -7 -6 -6 -6 -6 -7 -7 -6 -6 -5 -6 -6 -6 -6 -5 -5 -5 -5 -5 -5 -6 -6 -6 -6 -6 -7 -7 -7 -6 -6 -6
-5 -5 -7 -7 -7 -8 -6 -7 -7 -7 -6 -6 -7 -7 -7 -6 -6 -7 -5 -5 -4 -4 -4 -5 -6 -6 -6 -6 -5 -5 -5 -6 -6 -6 -6 -6 -6 -6 -6 -6 -6 -7 -6 -6
-5 -5 -5 -5 -6 -6 -6 -6 -6 -7 -6 -6 -5 -6 -6 -6 -6 -6 -6 -7 -5 -5 -5 -4 -6 -6 -6 -6 -6 -6 -6 -6 -6 -6 -6 -6 -6 -6 -6 -7 -7 -7 -6 -6
-6 -6 -6 -6 -6 -6 -6 -6 -6 -6 -7 -5 -6 -6 -6 -6 -6 -6 -6 -5 -4 -5 -6 -6 -5 -6 -6 -6 -6 -6 -6 -6 -6 -6 -6 -6 -6 -7 -7 -7 -7 -7 -7 -7
-6 -6 -7 -7 -6 -6 -6 -6 -6 -7 -7 -6 -6 -7 -6 -6 -7 -6 -6 -5 -5 -6 -7 -7 -7 -6 -7 -6 -6 -6 -6 -7 -8 -7 -7 -6 -6 -7 -7 -7 -7 -8 -7 -7
-7 -7 -7 -7 -6 -6 -6 -6 -7 -7 -7 -7 -6 -6 -6 -6 -6 -6 -6 -6 -7 -6 -6 -6 -7 -6 -7 -7 -6 -6 -6 -7 -7 -7 -7 -7 -7 -6 -7 -7 -7 -7 -7 -8
-7 -8 -8 -8 -7 -6 -6 -6 -7 -7 -7 -7 -6 -6 -6 -6 -6 -7 -7 -7 -6 -7 -7 -5 -5 -6 -7 -7 -6 -6 -6 -7 -7 -7 -7 -7 -7 -8 -8 -7 -8 -8 -8 -8
-8 -7 -8 -8 -7 -7 -6 -6 -6 -7 -7 -7 -6 -6 -6 -6 -6 -7 -7 -8 -7 -7 -7 -6 -4 -5 -7 -7 -6 -7 -6 -7 -7 -7 -7 -7 -8 -7 -7 -8 -8 -8 -7 -8
-7 -7 -7 -7 -7 -7 -7 -7 -7 -7 -7 -7 -6 -7 -7 -7 -7 -7 -7 -7 -8 -7 -7 -6 -6 -6 -7 -7 -6 -7 -7 -6 -7 -6 -7 -6 -7 -7 -8 -8 -8 -7 -7 -8
-7 -7 -7 -7 -7 -7 -7 -7 -7 -8 -7 -7 -7 -7 -7 -8 -7 -8 -7 -6 -8 -8 -7 -6 -6 -7 -7 -7 -6 -7 -7 -6 -6 -6 -6 -7 -7 -8 -7 -7 -7 -7 -8 -7
-8 -7 -7 -8 -8 -8 -8 -8 -8 -7 -7 -7 -7 -7 -7 -8 -8 -8 -7 -6 -6 -8 -8 -8 -7 -8 -7 -7 -7 -7 -7 -6 -7 -7 -6 -7 -7 -7 -8 -7 -8 -8 -7 -7
-8 -8 -8 -8 -8 -8 -8 -8 -8 -8 -8 -7 -7 -7 -7 -8 -8 -8 -8 -7 -7 -7 -8 -9 -8 -8 -7 -7 -7 -7 -6 -7 -7 -6 -6 -7 -8 -8 -7 -8 -8 -8 -5 -7
-8 -8 -8 -8 -8 -8 -8 -8 -8 -8 -8 -8 -7 -7 -8 -8 -8 -8 -8 -8 -8 -8 -7 -7 -8 -8 -7 -7 -7 -7 -7 -7 -7 -7 -7 -7 -7 -7 -8 -8 -8 -8 -7 -8
-8 -9 -9 -8 -8 -9 -8 -9 -9 -9 -8 -8 -8 -8 -8 -8 -8 -8 -8 -7 -8 -8 -8 -8 -8 -8 -8 -7 -7 -7 -7 -7 -7 -6 -7 -7 -7 -8 -8 -8 -8 -8 -7 -7
-9 -9 -9 -9 -9 -9 -9 -9 -9 -9 -9 -10 -9 -9 -8 -9 -8 -8 -9 -9 -9 -8 -9 -9 -8 -8 -8 -8 -8 -7 -7 -7 -7 -7 -7 -7 -8 -8 -8 -8 -8 -8 -8 -8
-9 -8 -9 -9 -9 -9 -9 -9 -9 -9 -9 -8 -9 -9 -9 -9 -9 -9 -9 -9 -9 -9 -8 -8 -8 -9 -9 -8 -8 -7 -7 -7 -8 -7 -7 -7 -8 -8 -8 -8 -8 -8 -9 -8
-10 -10 -9 -9 -10 -9 -9 -9 -9 -10 -9 -9 -9 -9 -9 -9 -10 -9 -9 -9 -9 -9 -9 -8 -8 -8 -8 -8 -8 -8 -8 -8 -8 -8 -8 -8 -8 -8 -8 -8 -8 -8 -9 -9
-9 -9 -9 -9 -10 -10 -9 -9 -9 -9 -9 -9 -9 -9 -9 -9 -9 -9 -9 -9 -9 -9 -9 -8 -8 -9 -8 -9 -9 -9 -8 -8 -8 -8 -8 -9 -9 -9 -9 -9 -9 -8 -9 -9
-10 -10 -10 -10 -10 -10 -9 -9 -9 -9 -8 -8 -8 -9 -10 -10 -8 -10 -9 -9 -9 -9 -9 -9 -8 -8 -9 -9 -8 -8 -8 -8 -9 -9 -9 -9 -9 -9 -9 -9 -9 -9 -10 -10
-10 -10 -9 -9 -9 -9 -8 -8 -9 -9 -9 -9 -9 -8 -8 -8 -9 -10 -9 -9 -9 -9 -9 -8 -8 -8 -8 -9 -8 -9 -9 -9 -9 -9 -9 -9 -9 -9 -9 -9 -9 -10 -10 -10
-10 -9 -9 -8 -9 -7 -7 -7 -8 -10 -9 -10 -9 -9 -9 -9 -9 -9 -8 -9 -9 -9 -9 -8 -8 -7 -8 -9 -9 -9 -9 -9 -9 -9 -10 -9 -9 -9 -9 -9 -10 -9 -10 -10
-9 -9 -9 -9 -8 -8 -7 -7 -7 -9 -10 -10 -10 -9 -9 -9 -9 -9 -9 -9 -9 -9 -9 -9 -8 -8 -9 -9 -9 -9 -9 -9 -9 -9 -9 -9 -9 -9 -9 -9 -10 -10 -10 -10
-9 -9 -8 -8 -8 -8 -7 -8 -8 -8 -9 -9 -9 -10 -10 -10 -11 -10 -8 -9 -9 -9 -9 -9 -8 -9 -9 -8 -9 -9 -9 -9 -9 -9 -9 -9 -9 -9 -9 -9 -10 -10 -10 -10
Height
5907 5910 5913 5914 5915 5914 5916 5917 5918 5921 5914 5920 5925 5927 5926 5925 5924 5922 5920 5919 5920 5919 5917 5915 5912 5912 5910 5910 5908 5908 5908 5907 5907 5907 5907 5908 5909 5909 5910 5911 5912 5911 5911 5906
5905 5908 5910 5912 5913 5912 5916 5920 5917 5918 5921 5922 5926 5925 5920 5919 5919 5920 5921 5923 5920 5920 5919 5917 5913 5912 5912 5911 5912 5912 5910 5909 5908 5907 5908 5908 5908 5908 5910 5909 5909 5910 5908 5909
5902 5905 5906 5908 5911 5912 5914 5918 5921 5915 5913 5922 5924 5923 5913 5913 5916 5921 5917 5919 5917 5916 5919 5917 5915 5912 5911 5911 5912 5913 5912 5912 5911 5910 5910 5909 5909 5908 5909 5910 5911 5911 5912 5910
5899 5900 5902 5903 5907 5911 5913 5916 5918 5920 5920 5919 5921 5921 5921 5916 5916 5917 5907 5911 5910 5909 5918 5915 5913 5914 5911 5911 5912 5912 5912 5912 5911 5910 5910 5909 5909 5910 5910 5910 5910 5911 5909 5908
5897 5898 5899 5901 5904 5908 5908 5910 5911 5912 5912 5914 5917 5917 5917 5918 5916 5915 5912 5912 5914 5911 5916 5915 5912 5913 5912 5910 5911 5912 5911 5912 5911 5911 5909 5908 5910 5908 5906 5907 5906 5905 5906 5904
5893 5895 5896 5898 5901 5903 5903 5905 5906 5908 5909 5909 5913 5915 5914 5914 5913 5913 5914 5911 5911 5912 5910 5909 5908 5912 5912 5911 5910 5911 5911 5910 5910 5909 5907 5906 5907 5904 5907 5908 5906 5904 5904 5904
5891 5894 5896 5897 5898 5900 5900 5902 5903 5905 5906 5908 5911 5912 5911 5912 5911 5910 5913 5912 5906 5906 5907 5907 5905 5909 5910 5911 5910 5910 5910 5909 5907 5906 5904 5904 5904 5902 5903 5905 5904 5902 5902 5903
5888 5892 5894 5895 5896 5896 5897 5898 5899 5900 5902 5905 5908 5906 5905 5906 5906 5906 5902 5903 5898 5898 5898 5905 5904 5907 5907 5909 5909 5909 5908 5906 5905 5902 5902 5901 5901 5900 5900 5899 5899 5899 5899 5899
5886 5888 5889 5891 5891 5893 5894 5894 5897 5898 5900 5900 5904 5904 5902 5903 5904 5900 5890 5889 5889 5893 5881 5884 5899 5906 5904 5909 5908 5907 5906 5905 5904 5901 5900 5899 5898 5898 5898 5897 5897 5898 5898 5897
5884 5885 5888 5888 5890 5890 5891 5894 5892 5895 5898 5899 5901 5902 5902 5899 5900 5894 5889 5884 5866 5884 5892 5900 5899 5902 5903 5905 5907 5906 5905 5904 5902 5900 5898 5897 5895 5893 5893 5894 5893 5893 5893 5895
5882 5884 5887 5887 5889 5889 5889 5890 5890 5893 5895 5895 5897 5899 5896 5896 5898 5893 5892 5888 5883 5893 5897 5893 5898 5897 5900 5904 5906 5903 5903 5902 5900 5899 5895 5893 5892 5889 5887 5887 5887 5886 5887 5886
5878 5882 5882 5885 5886 5887 5888 5888 5889 5891 5895 5894 5897 5895 5890 5891 5891 5889 5882 5883 5886 5892 5892 5897 5897 5893 5901 5904 5903 5901 5901 5900 5898 5896 5894 5890 5887 5885 5882 5879 5881 5880 5878 5877
5875 5880 5884 5885 5886 5887 5887 5885 5886 5888 5890 5893 5895 5891 5886 5885 5886 5885 5882 5883 5882 5882 5888 5894 5895 5894 5900 5900 5900 5901 5900 5897 5897 5894 5892 5889 5883 5881 5879 5875 5875 5874 5871 5869
5873 5877 5877 5881 5882 5885 5884 5884 5884 5885 5887 5890 5889 5886 5886 5884 5884 5882 5883 5880 5860 5881 5884 5888 5892 5895 5897 5898 5899 5899 5898 5895 5894 5891 5889 5885 5880 5878 5876 5873 5870 5868 5863 5861
5868 5873 5873 5874 5878 5880 5882 5882 5883 5883 5884 5885 5888 5883 5883 5880 5880 5880 5880 5881 5883 5884 5885 5887 5889 5892 5893 5895 5895 5895 5895 5894 5892 5888 5886 5882 5879 5878 5877 5874 5871 5867 5851 5847
5864 5867 5870 5869 5874 5875 5875 5877 5878 5878 5875 5878 5879 5881 5877 5873 5876 5877 5877 5876 5878 5881 5883 5886 5887 5889 5890 5890 5890 5891 5890 5890 5889 5886 5884 5879 5878 5876 5874 5872 5871 5867 5859 5854
5860 5862 5861 5865 5867 5867 5870 5873 5872 5872 5872 5874 5875 5874 5873 5871 5873 5872 5871 5874 5876 5877 5878 5881 5884 5885 5887 5887 5887 5888 5888 5887 5886 5883 5881 5878 5870 5874 5873 5871 5868 5865 5862 5861
5854 5856 5858 5860 5863 5863 5867 5866 5863 5863 5868 5869 5871 5872 5870 5863 5867 5866 5866 5867 5870 5873 5875 5877 5879 5881 5884 5884 5885 5885 5884 5884 5883 5880 5878 5876 5874 5872 5871 5869 5867 5865 5862 5859
5852 5853 5854 5855 5856 5858 5861 5857 5857 5857 5857 5858 5858 5863 5864 5865 5862 5864 5865 5864 5865 5868 5872 5872 5874 5876 5878 5879 5880 5880 5880 5880 5879 5877 5875 5874 5872 5869 5867 5865 5863 5860 5860 5858
5849 5850 5849 5851 5851 5851 5851 5851 5852 5852 5850 5853 5857 5857 5858 5852 5858 5861 5860 5861 5861 5861 5865 5868 5868 5870 5871 5872 5874 5874 5875 5875 5874 5873 5872 5871 5867 5865 5861 5858 5856 5854 5852 5851
5840 5840 5842 5843 5842 5843 5843 5845 5844 5846 5849 5845 5836 5849 5852 5853 5845 5853 5855 5854 5855 5854 5853 5858 5860 5862 5864 5864 5866 5868 5869 5869 5868 5867 5866 5865 5863 5862 5859 5856 5853 5849 5847 5845
5834 5836 5836 5838 5837 5837 5834 5834 5836 5835 5835 5836 5839 5837 5830 5835 5840 5839 5847 5847 5847 5848 5845 5846 5848 5852 5856 5856 5857 5860 5861 5860 5860 5860 5859 5858 5857 5855 5853 5850 5848 5844 5842 5840
5829 5828 5829 5829 5828 5827 5826 5827 5830 5829 5831 5829 5830 5829 5831 5829 5832 5832 5834 5838 5839 5840 5838 5835 5839 5840 5844 5845 5849 5851 5850 5851 5852 5853 5853 5852 5850 5847 5845 5841 5841 5839 5836 5835
5820 5819 5819 5819 5817 5818 5821 5822 5823 5824 5822 5821 5818 5819 5819 5820 5822 5823 5822 5829 5831 5830 5827 5829 5828 5828 5830 5835 5840 5841 5838 5842 5844 5844 5844 5844 5841 5839 5838 5836 5834 5832 5829 5827
5814 5812 5811 5812 5811 5813 5815 5816 5818 5816 5814 5812 5810 5811 5811 5811 5811 5810 5810 5816 5815 5816 5819 5822 5819 5820 5823 5812 5828 5835 5831 5834 5837 5836 5836 5835 5834 5831 5831 5828 5824 5822 5820 5818
5808 5804 5802 5803 5806 5807 5810 5813 5811 5808 5806 5803 5803 5803 5805 5801 5800 5802 5804 5805 5807 5811 5813 5817 5816 5815 5816 5790 5818 5826 5823 5824 5827 5830 5829 5828 5826 5825 5822 5819 5815 5814 5813 5812
Wind_Speed
18 15 11 12 15 13 6 11 16 21 7 7 15 10 17 19 10 8 8 8 13 15 11 9 9 10 12 13 14 12 6 3 3 4 4 2 3 4 5 7 9 11 13 5
19 13 12 14 17 16 7 14 13 28 10 15 20 18 16 21 18 27 17 11 5 12 10 6 9 10 9 9 11 10 10 11 10 6 4 4 3 2 4 5 7 10 15 11
18 15 15 13 10 15 16 7 3 23 15 23 20 4 24 31 19 12 23 25 14 2 5 7 3 6 8 9 7 7 9 9 10 9 8 5 3 4 3 6 6 7 9 9
17 16 15 8 8 20 14 11 9 22 26 26 14 17 20 23 23 26 32 26 13 1 0 4 9 4 7 8 8 9 7 7 7 7 7 5 5 6 7 9 9 10 11 11
15 16 15 19 22 25 15 20 22 23 22 27 14 18 17 21 29 25 27 40 6 5 4 2 2 7 5 9 10 9 7 7 8 8 8 8 9 10 11 9 9 10 12 12
13 13 15 14 20 23 19 20 22 30 23 20 9 16 21 22 29 27 20 7 8 7 1 4 4 4 6 8 10 11 12 10 9 9 9 10 11 13 13 14 13 11 11 13
10 7 6 9 11 16 17 16 18 19 16 9 8 13 19 24 23 27 40 15 6 1 0 5 2 3 5 9 14 14 15 14 13 11 10 10 8 11 10 9 10 11 5 12
7 3 8 17 14 16 16 14 14 11 8 7 14 19 24 24 24 30 31 22 7 3 9 2 8 2 4 8 15 13 16 16 13 5 3 7 9 10 10 9 5 10 13 11
10 4 9 19 13 11 11 15 7 13 14 19 12 18 20 24 20 27 36 19 17 11 6 8 7 6 3 7 12 13 15 17 14 4 3 6 9 10 12 11 10 11 9 9
15 13 6 14 9 10 13 10 15 12 13 12 14 13 19 26 24 22 24 28 15 6 20 24 1 3 2 5 10 10 11 15 15 10 8 7 8 9 11 12 15 16 14 14
21 22 11 14 8 9 6 11 17 16 16 17 10 17 24 25 23 17 8 16 24 9 22 4 2 8 5 3 7 7 10 12 12 10 10 11 12 15 19 20 21 25 22 19
20 25 17 4 8 15 17 8 15 22 16 19 11 25 30 21 29 20 16 19 1 11 18 11 2 9 6 0 6 5 8 10 14 12 11 14 15 11 10 17 14 15 15 16
16 13 15 4 3 11 16 6 13 11 11 11 9 22 26 30 17 21 30 22 5 10 20 14 6 2 2 2 1 4 7 12 11 15 16 18 21 16 16 14 11 20 25 24
16 19 18 7 7 9 3 7 6 11 18 13 13 19 18 19 21 24 10 19 13 14 18 14 9 7 4 6 7 6 7 10 11 17 19 20 19 11 11 15 21 27 36 32
14 19 25 20 15 11 14 13 12 8 7 18 17 23 24 21 22 22 22 18 20 21 17 16 11 11 6 9 10 8 6 10 13 18 19 17 17 12 13 14 20 29 22 27
13 20 30 28 18 11 13 16 14 13 20 16 26 14 19 29 26 24 24 28 15 7 11 18 13 13 11 15 17 11 8 10 15 17 16 14 10 9 9 11 15 20 25 27
9 19 23 25 20 22 23 14 12 22 20 18 18 18 15 26 30 31 18 19 11 11 10 13 16 14 13 16 18 11 10 12 15 16 18 18 8 13 13 14 15 18 17 16
19 20 20 21 23 25 20 21 20 24 25 22 16 15 15 22 24 19 16 15 18 18 15 16 19 19 15 19 19 16 15 13 14 15 19 13 17 17 18 19 21 21 21 18
25 23 22 25 23 24 15 27 28 26 18 21 34 25 24 27 21 19 25 24 27 21 19 24 25 23 19 20 20 18 20 17 14 16 17 18 19 21 25 25 26 26 24 19
30 33 31 21 27 23 23 27 29 27 32 32 30 36 34 29 26 34 27 29 33 31 28 29 31 31 29 24 20 18 19 16 16 16 20 17 19 23 26 27 30 31 27 24
24 22 22 23 22 22 22 22 30 36 34 32 33 38 42 43 31 37 37 36 35 37 40 32 31 35 27 17 20 21 20 17 18 19 17 19 23 23 26 29 30 29 25 20
27 25 26 26 25 33 32 35 31 33 33 37 38 44 55 55 48 45 47 44 42 42 42 39 35 35 29 23 22 21 21 21 21 19 21 23 25 27 29 31 30 26 22 22
27 28 30 26 30 34 33 33 30 34 37 41 40 28 23 33 43 54 53 50 47 40 35 31 29 32 34 30 25 23 24 23 23 21 22 23 27 27 28 29 28 26 24 24
29 35 36 36 38 37 31 28 30 30 30 26 33 30 27 25 31 35 40 37 40 35 32 29 28 30 34 33 29 25 28 25 23 25 18 20 25 26 28 30 27 29 32 27
32 33 35 36 37 33 31 29 26 23 27 32 28 26 26 25 24 29 33 27 33 31 27 24 26 27 31 37 28 25 25 21 22 25 19 24 27 27 31 34 37 31 32 30
28 33 36 35 32 29 30 22 25 23 25 26 21 21 23 26 24 27 25 24 26 23 22 22 22 25 24 19 13 21 26 26 23 22 24 27 26 29 34 27 29 25 23 26
Wind_Direction
231 231 216 210 210 164 240 305 343 341 108 182 298 304 295 325 338 328 1 7 7 16 10 35 52 53 54 54 59 63 77 113 190 213 208 248 303 339 6 6 352 308 290 28
231 230 218 218 220 186 198 258 302 291 312 326 301 324 311 311 324 344 327 300 335 353 12 36 65 45 41 48 51 59 68 69 77 93 104 102 113 53 4 355 9 13 20 3
230 227 217 214 222 204 186 188 243 313 317 278 294 357 303 302 329 6 310 304 237 307 6 343 43 30 15 22 31 32 41 46 52 58 65 64 65 7 352 347 344 343 330 343
229 225 231 207 285 290 224 164 234 265 263 267 303 302 295 312 321 317 286 304 290 63 352 37 311 340 5 6 17 15 11 8 13 17 22 9 328 316 305 300 298 302 311 327
225 222 196 206 213 235 232 199 231 241 244 245 265 273 289 291 297 277 305 321 301 246 292 42 338 334 34 31 14 21 9 3 342 333 333 326 328 319 302 306 327 344 337 329
224 243 244 238 236 247 251 249 240 234 250 242 301 259 265 273 287 301 294 310 243 221 183 274 69 300 50 37 19 16 17 4 344 324 309 309 315 311 319 345 346 337 335 327
209 232 265 278 263 255 272 256 254 244 251 270 17 317 279 282 289 301 317 281 134 126 159 257 304 303 14 57 41 19 7 349 330 315 298 300 304 317 329 336 341 321 336 328
174 217 325 291 263 255 251 247 247 246 255 285 293 298 303 311 298 298 303 286 249 245 260 216 281 348 351 27 32 14 3 360 352 347 302 303 307 309 330 346 20 339 327 338
148 260 247 277 280 242 243 247 237 230 230 256 253 294 303 311 291 302 299 267 223 243 194 190 284 319 12 15 20 4 7 10 1 348 325 327 325 333 330 342 325 307 306 315
163 152 311 289 311 297 246 237 209 214 269 301 255 289 301 292 301 294 282 284 173 316 329 319 87 58 46 348 19 351 4 3 354 344 314 308 309 314 306 305 305 304 306 287
193 193 180 248 332 11 293 234 241 215 219 258 253 304 298 293 301 318 297 284 294 302 310 37 297 135 122 295 343 343 346 345 328 320 306 300 298 304 312 315 301 294 290 292
209 222 213 284 355 304 324 289 214 230 232 234 245 305 284 284 307 306 308 290 158 296 307 338 243 86 125 16 315 346 333 323 317 319 301 292 289 304 307 321 342 339 325 289
233 199 123 74 312 268 287 329 212 228 267 199 259 293 301 303 314 301 298 294 253 281 306 318 300 42 155 324 302 319 315 308 323 330 336 323 304 311 306 304 337 322 306 303
244 187 163 208 250 221 306 353 323 237 219 217 241 283 285 299 311 294 276 278 63 285 300 312 303 303 311 258 227 248 288 302 304 320 331 328 332 336 326 325 342 325 310 300
217 202 181 202 196 190 238 244 248 239 234 224 244 278 297 299 293 310 319 297 287 263 268 283 282 281 239 238 233 247 272 288 299 311 324 328 319 316 329 325 329 338 283 277
218 205 206 202 199 212 227 233 253 256 234 223 222 249 297 281 296 285 282 283 260 242 264 277 263 255 250 229 229 248 263 275 293 301 313 330 352 346 325 342 336 346 355 7
207 190 218 208 205 231 239 224 253 243 243 243 219 233 266 268 269 278 269 253 257 291 264 281 252 234 232 244 231 258 257 274 299 312 309 315 320 351 343 343 345 344 353 349
208 217 225 231 224 234 240 239 254 266 242 242 220 251 234 252 259 278 285 282 277 259 234 249 263 253 233 240 237 247 267 276 296 305 311 318 318 322 327 337 342 342 338 336
252 247 251 233 229 242 225 233 241 261 269 251 210 217 234 245 235 246 256 262 268 266 245 251 246 227 230 232 242 245 258 270 284 292 295 300 310 314 319 323 325 324 326 326
257 256 259 235 244 256 236 235 245 255 257 262 255 226 220 226 245 252 257 264 266 273 283 284 264 252 241 230 235 247 251 269 277 291 290 293 294 304 312 319 325 323 319 318
245 249 256 252 244 259 255 254 261 258 262 269 259 234 229 235 232 243 253 256 260 269 278 276 274 252 248 250 241 244 253 258 270 276 281 294 298 307 308 320 316 317 315 300
237 247 249 247 249 249 254 257 253 258 262 268 269 273 267 224 236 246 245 251 258 266 273 272 262 246 238 240 243 232 253 254 259 268 280 288 300 307 309 307 314 320 309 290
243 245 244 243 257 246 257 268 264 267 280 281 288 284 264 222 229 241 249 247 254 260 265 263 254 245 236 240 246 234 241 246 256 264 280 293 297 301 310 299 291 304 299 291
228 246 247 249 250 259 272 286 279 287 289 289 287 282 271 254 250 249 252 247 257 249 256 258 248 243 230 234 228 232 238 249 260 257 280 292 302 294 297 299 294 298 297 282
247 257 253 255 262 262 271 282 295 289 280 280 281 271 268 270 259 248 247 247 242 242 248 251 252 239 230 232 215 230 242 252 263 272 286 295 302 302 297 300 288 290 302 277
252 258 259 259 263 268 274 291 299 288 291 271 279 274 265 266 261 256 249 240 241 239 248 245 251 249 248 268 258 253 257 255 245 276 283 289 291 303 303 307 307 304 304 298